Location: Gro� Glienicke
(52.4675°N, 13.1079°E)
Time: 02:33:15
(UTC+00:00)

Cosmos 1680 Rocket - Pass Details

Date: 06 July 2020
Orbit: 760 x 781 km, 74.1° (Epoch: 04 August)

Event Time Altitude Azimuth Distance (km) Brightness Sun altitude
Exits shadow 20:59:29 12° 161° (SSE) 2,214 5.2 -9.6°
Maximum altitude 21:03:45 31° 102° (ESE) 1,337 4.4 -9.9°
Drops below altitude 10° 21:08:24 10° 41° (NE) 2,347 6.3 -10.2°
Sets 21:11:00 0° 32° (NNE) 3,279 7.2 -10.4°
